Time,TemperatureF,DewpointF,PressureIn,WindDirection,WindDirectionDegrees,WindSpeedMPH,WindSpeedGustMPH,Humidity,HourlyPrecipIn,Conditions,Clouds,dailyrainin,SoftwareType,DateUTC
2013-09-27 00:00:00,52.2,46.2,29.65,WNW,292,0.0,0.0,80,0.00,,---,0.00,VWS V14.00,2013-09-27 06:00:00,
2013-09-27 00:05:00,52.1,46.1,29.62,WNW,291,0.0,0.0,80,0.00,,---,0.00,VWS V14.00,2013-09-27 06:05:00,
2013-09-27 00:12:00,52.0,46.4,29.63,North,0,0.0,0.0,81,0.00,,---,0.00,VWS V14.00,2013-09-27 06:12:00,
2013-09-27 00:17:00,52.1,46.5,29.62,WNW,291,0.0,2.0,81,0.00,,---,0.00,VWS V14.00,2013-09-27 06:17:00,
2013-09-27 00:22:00,52.2,46.5,29.62,WNW,290,0.0,0.0,81,0.00,,---,0.00,VWS V14.00,2013-09-27 06:22:00,
2013-09-27 00:27:00,52.4,46.8,29.62,WNW,290,1.0,2.0,81,0.00,,---,0.00,VWS V14.00,2013-09-27 06:27:00,
2013-09-27 00:32:00,52.4,46.8,29.62,WNW,290,0.0,0.0,81,0.00,,---,0.00,VWS V14.00,2013-09-27 06:32:00,
2013-09-27 00:37:00,52.3,46.7,29.62,WNW,290,0.0,0.0,81,0.00,,---,0.00,VWS V14.00,2013-09-27 06:37:00,
2013-09-27 00:42:00,52.4,46.8,29.62,WNW,290,0.0,0.0,81,0.00,,---,0.00,VWS V14.00,2013-09-27 06:42:00,
2013-09-27 00:47:00,52.4,46.8,29.62,WNW,290,0.0,0.0,81,0.00,,---,0.00,VWS V14.00,2013-09-27 06:47:00,
2013-09-27 00:53:00,52.3,46.7,29.62,WNW,290,0.0,0.0,81,0.00,,---,0.00,VWS V14.00,2013-09-27 06:53:00,
2013-09-27 00:58:00,52.2,46.5,29.62,WNW,290,0.0,0.0,81,0.00,,---,0.00,VWS V14.00,2013-09-27 06:58:00,
2013-09-27 01:03:00,52.2,46.5,29.61,WNW,290,0.0,2.0,81,0.00,,---,0.00,VWS V14.00,2013-09-27 07:03:00,
2013-09-27 01:08:00,52.3,46.7,29.62,WNW,286,0.0,0.0,81,0.00,,---,0.00,VWS V14.00,2013-09-27 07:08:00,
2013-09-27 01:13:00,52.3,46.7,29.62,SW,223,0.0,3.0,81,0.00,,---,0.00,VWS V14.00,2013-09-27 07:13:00,
2013-09-27 01:18:00,52.3,46.3,29.61,SW,223,0.0,0.0,80,0.00,,---,0.00,VWS V14.00,2013-09-27 07:18:00,
2013-09-27 01:23:00,52.3,46.3,29.61,SW,223,0.0,0.0,80,0.00,,---,0.00,VWS V14.00,2013-09-27 07:23:00,
2013-09-27 01:28:00,52.2,46.2,29.61,SW,222,0.0,0.0,80,0.00,,---,0.00,VWS V14.00,2013-09-27 07:28:00,
2013-09-27 01:33:00,52.1,46.1,29.61,SW,223,0.0,0.0,80,0.00,,---,0.00,VWS V14.00,2013-09-27 07:33:00,
2013-09-27 01:38:00,52.0,46.0,29.61,SW,223,0.0,0.0,80,0.00,,---,0.00,VWS V14.00,2013-09-27 07:38:00,
2013-09-27 01:43:00,51.9,45.9,29.61,SW,223,0.0,0.0,80,0.00,,---,0.00,VWS V14.00,2013-09-27 07:43:00,
2013-09-27 01:48:00,51.8,45.8,29.61,SW,222,0.0,0.0,80,0.00,,---,0.00,VWS V14.00,2013-09-27 07:48:00,
2013-09-27 01:53:00,51.7,45.7,29.61,SW,223,0.0,0.0,80,0.00,,---,0.00,VWS V14.00,2013-09-27 07:53:00,
2013-09-27 01:58:00,51.6,45.6,29.61,SW,223,0.0,0.0,80,0.00,,---,0.00,VWS V14.00,2013-09-27 07:58:00,
2013-09-27 02:03:00,51.4,45.5,29.60,SW,222,0.0,0.0,80,0.00,,---,0.00,VWS V14.00,2013-09-27 08:03:00,
2013-09-27 02:08:00,51.2,45.2,29.60,SW,222,0.0,0.0,80,0.00,,---,0.00,VWS V14.00,2013-09-27 08:08:00,
2013-09-27 02:10:00,51.2,45.2,29.60,SW,222,0.0,0.0,80,0.00,,---,0.00,VWS V14.00,2013-09-27 08:10:00,
2013-09-27 02:15:00,51.0,45.1,29.60,SW,222,0.0,0.0,80,0.00,,---,0.00,VWS V14.00,2013-09-27 08:15:00,
2013-09-27 02:20:00,50.8,44.9,29.60,SW,223,0.0,0.0,80,0.00,,---,0.00,VWS V14.00,2013-09-27 08:20:00,
2013-09-27 02:25:00,50.6,44.7,29.60,SW,223,0.0,0.0,80,0.00,,---,0.00,VWS V14.00,2013-09-27 08:25:00,
2013-09-27 02:30:00,50.4,44.5,29.60,SW,222,0.0,0.0,80,0.00,,---,0.00,VWS V14.00,2013-09-27 08:30:00,
2013-09-27 02:35:00,50.2,44.3,29.60,SW,223,0.0,0.0,80,0.00,,---,0.00,VWS V14.00,2013-09-27 08:35:00,
2013-09-27 02:40:00,50.1,44.5,29.61,SW,223,0.0,0.0,81,0.00,,---,0.00,VWS V14.00,2013-09-27 08:40:00,
2013-09-27 02:45:00,49.9,44.3,29.60,SW,222,0.0,0.0,81,0.00,,---,0.00,VWS V14.00,2013-09-27 08:45:00,
2013-09-27 02:50:00,49.7,44.1,29.60,SW,222,0.0,0.0,81,0.00,,---,0.00,VWS V14.00,2013-09-27 08:50:00,
2013-09-27 02:55:00,49.5,43.9,29.60,SW,223,0.0,0.0,81,0.00,,---,0.00,VWS V14.00,2013-09-27 08:55:00,
2013-09-27 03:00:00,49.4,43.8,29.61,SW,223,0.0,0.0,81,0.00,,---,0.00,VWS V14.00,2013-09-27 09:00:00,
2013-09-27 03:05:00,49.2,43.6,29.60,SW,223,0.0,0.0,81,0.00,,---,0.00,VWS V14.00,2013-09-27 09:05:00,
2013-09-27 03:10:00,49.1,43.5,29.60,SW,222,0.0,0.0,81,0.00,,---,0.00,VWS V14.00,2013-09-27 09:10:00,
2013-09-27 03:15:00,48.9,43.3,29.60,SW,223,0.0,0.0,81,0.00,,---,0.00,VWS V14.00,2013-09-27 09:15:00,
2013-09-27 03:20:00,48.7,43.1,29.60,SW,223,0.0,0.0,81,0.00,,---,0.00,VWS V14.00,2013-09-27 09:20:00,
2013-09-27 03:25:00,48.6,43.0,29.60,SW,222,0.0,0.0,81,0.00,,---,0.00,VWS V14.00,2013-09-27 09:25:00,
2013-09-27 03:30:00,48.4,43.2,29.62,SW,223,0.0,0.0,82,0.00,,---,0.00,VWS V14.00,2013-09-27 09:30:00,
2013-09-27 03:35:00,48.4,43.2,29.62,SW,223,0.0,0.0,82,0.00,,---,0.00,VWS V14.00,2013-09-27 09:35:00,
2013-09-27 03:40:00,48.3,43.1,29.62,SW,223,0.0,0.0,82,0.00,,---,0.00,VWS V14.00,2013-09-27 09:40:00,
2013-09-27 03:45:00,48.2,43.0,29.62,SW,222,0.0,0.0,82,0.00,,---,0.00,VWS V14.00,2013-09-27 09:45:00,
2013-09-27 03:50:00,48.1,43.2,29.62,SW,223,0.0,0.0,83,0.00,,---,0.00,VWS V14.00,2013-09-27 09:50:00,
2013-09-27 03:55:00,47.9,42.7,29.63,SW,223,0.0,0.0,82,0.00,,---,0.00,VWS V14.00,2013-09-27 09:55:00,
2013-09-27 04:00:00,47.9,43.0,29.63,SW,222,0.0,0.0,83,0.00,,---,0.00,VWS V14.00,2013-09-27 10:00:00,
2013-09-27 04:05:00,47.9,43.0,29.63,SW,222,0.0,0.0,83,0.00,,---,0.00,VWS V14.00,2013-09-27 10:05:00,
2013-09-27 04:10:00,48.0,43.4,29.64,SW,223,0.0,0.0,84,0.00,,---,0.00,VWS V14.00,2013-09-27 10:10:00,
2013-09-27 04:15:00,48.1,43.5,29.63,SW,223,0.0,0.0,84,0.00,,---,0.00,VWS V14.00,2013-09-27 10:15:00,
2013-09-27 04:20:00,48.6,44.3,29.63,SW,223,0.0,0.0,85,0.00,,---,0.00,VWS V14.00,2013-09-27 10:20:00,
2013-09-27 04:25:00,48.8,44.5,29.63,SW,222,0.0,0.0,85,0.00,,---,0.00,VWS V14.00,2013-09-27 10:25:00,
2013-09-27 04:30:00,49.0,45.0,29.62,SW,223,0.0,0.0,86,0.00,,---,0.00,VWS V14.00,2013-09-27 10:30:00,
2013-09-27 04:35:00,49.2,45.2,29.62,SW,222,0.0,0.0,86,0.00,,---,0.00,VWS V14.00,2013-09-27 10:35:00,
2013-09-27 04:40:00,49.6,45.6,29.61,SW,222,0.0,0.0,86,0.00,,---,0.00,VWS V14.00,2013-09-27 10:40:00,
2013-09-27 04:45:00,49.9,45.9,29.61,SW,223,0.0,0.0,86,0.00,,---,0.00,VWS V14.00,2013-09-27 10:45:00,
2013-09-27 04:51:00,50.1,46.1,29.62,SW,223,0.0,0.0,86,0.00,,---,0.00,VWS V14.00,2013-09-27 10:51:00,
2013-09-27 04:56:00,50.3,46.6,29.62,SW,223,0.0,1.0,87,0.00,,---,0.00,VWS V14.00,2013-09-27 10:56:00,
2013-09-27 05:02:00,50.8,47.1,29.63,WNW,300,0.0,1.0,87,0.00,,---,0.00,VWS V14.00,2013-09-27 11:02:00,
2013-09-27 05:07:00,51.3,47.9,29.63,NE,42,0.0,2.0,88,0.00,,---,0.00,VWS V14.00,2013-09-27 11:07:00,
2013-09-27 05:12:00,51.7,48.3,29.62,NNW,333,0.0,0.0,88,0.00,,---,0.00,VWS V14.00,2013-09-27 11:12:00,
2013-09-27 05:17:00,51.9,48.5,29.61,NNE,14,0.0,0.0,88,0.00,,---,0.00,VWS V14.00,2013-09-27 11:17:00,
2013-09-27 05:22:00,52.1,48.7,29.61,NE,34,0.0,1.0,88,0.00,,---,0.00,VWS V14.00,2013-09-27 11:22:00,
2013-09-27 05:27:00,52.1,48.7,29.61,WNW,298,1.0,2.0,88,0.00,,---,0.00,VWS V14.00,2013-09-27 11:27:00,
2013-09-27 05:32:00,52.1,48.7,29.61,North,10,0.0,3.0,88,0.00,,---,0.00,VWS V14.00,2013-09-27 11:32:00,
2013-09-27 05:37:00,52.1,48.7,29.61,NNE,25,0.0,4.0,88,0.00,,---,0.00,VWS V14.00,2013-09-27 11:37:00,
2013-09-27 05:42:00,52.1,48.7,29.61,North,5,0.0,1.0,88,0.00,,---,0.00,VWS V14.00,2013-09-27 11:42:00,
2013-09-27 05:47:00,52.1,48.7,29.62,NNE,32,0.0,3.0,88,0.00,,---,0.00,VWS V14.00,2013-09-27 11:47:00,
2013-09-27 05:52:00,52.0,48.6,29.62,NE,42,2.0,4.0,88,0.00,,---,0.00,VWS V14.00,2013-09-27 11:52:00,
2013-09-27 05:57:00,51.9,48.5,29.62,NNE,19,0.0,2.0,88,0.00,,---,0.00,VWS V14.00,2013-09-27 11:57:00,
2013-09-27 06:02:00,51.9,48.5,29.64,NE,46,0.0,1.0,88,0.00,,---,0.00,VWS V14.00,2013-09-27 12:02:00,
2013-09-27 06:07:00,52.0,48.6,29.64,NE,44,0.0,2.0,88,0.00,,---,0.00,VWS V14.00,2013-09-27 12:07:00,
2013-09-27 06:12:00,51.9,48.5,29.65,North,11,0.0,0.0,88,0.00,,---,0.00,VWS V14.00,2013-09-27 12:12:00,
2013-09-27 06:17:00,51.9,48.5,29.65,SE,124,0.0,2.0,88,0.00,,---,0.00,VWS V14.00,2013-09-27 12:17:00,
2013-09-27 06:22:00,51.8,48.4,29.65,NNE,14,2.0,2.0,88,0.00,,---,0.00,VWS V14.00,2013-09-27 12:22:00,
2013-09-27 06:27:00,51.7,48.6,29.65,NE,45,1.0,4.0,89,0.00,,---,0.00,VWS V14.00,2013-09-27 12:27:00,
2013-09-27 06:32:00,51.6,48.2,29.64,North,355,0.0,1.0,88,0.00,,---,0.00,VWS V14.00,2013-09-27 12:32:00,
2013-09-27 06:37:00,51.6,48.5,29.64,NW,325,0.0,0.0,89,0.00,,---,0.00,VWS V14.00,2013-09-27 12:37:00,
2013-09-27 06:42:00,51.6,48.5,29.64,NNW,334,3.0,5.0,89,0.00,,---,0.00,VWS V14.00,2013-09-27 12:42:00,
2013-09-27 06:47:00,51.5,48.4,29.65,NNE,16,1.0,3.0,89,0.00,,---,0.00,VWS V14.00,2013-09-27 12:47:00,
2013-09-27 06:52:00,51.5,48.4,29.66,NE,39,0.0,1.0,89,0.00,,---,0.00,VWS V14.00,2013-09-27 12:52:00,
2013-09-27 06:57:00,51.3,48.2,29.66,NE,44,2.0,4.0,89,0.00,,---,0.00,VWS V14.00,2013-09-27 12:57:00,
2013-09-27 07:02:00,51.0,47.9,29.69,NE,45,0.0,2.0,89,0.00,,---,0.00,VWS V14.00,2013-09-27 13:02:00,
2013-09-27 07:07:00,50.7,47.3,29.70,NW,305,0.0,1.0,88,0.00,,---,0.00,VWS V14.00,2013-09-27 13:07:00,
2013-09-27 07:13:00,50.5,47.4,29.70,East,88,0.0,2.0,89,0.00,,---,0.00,VWS V14.00,2013-09-27 13:13:00,
2013-09-27 07:18:00,50.4,47.3,29.70,NNW,339,2.0,6.0,89,0.00,,---,0.00,VWS V14.00,2013-09-27 13:18:00,
2013-09-27 07:23:00,50.3,47.2,29.70,NE,52,0.0,3.0,89,0.00,,---,0.00,VWS V14.00,2013-09-27 13:23:00,
2013-09-27 07:28:00,50.1,47.0,29.70,NNW,331,2.0,2.0,89,0.00,,---,0.00,VWS V14.00,2013-09-27 13:28:00,
2013-09-27 07:33:00,49.8,46.7,29.70,North,355,1.0,4.0,89,0.00,,---,0.00,VWS V14.00,2013-09-27 13:33:00,
2013-09-27 07:38:00,49.6,46.2,29.70,NNE,28,0.0,0.0,88,0.00,,---,0.00,VWS V14.00,2013-09-27 13:38:00,
2013-09-27 07:43:00,49.4,46.3,29.72,NE,38,0.0,1.0,89,0.00,,---,0.00,VWS V14.00,2013-09-27 13:43:00,
2013-09-27 07:48:00,49.3,46.2,29.72,NNE,26,0.0,3.0,89,0.00,,---,0.00,VWS V14.00,2013-09-27 13:48:00,
2013-09-27 07:54:00,49.2,46.1,29.72,NE,38,0.0,4.0,89,0.00,,---,0.00,VWS V14.00,2013-09-27 13:54:00,
2013-09-27 07:59:00,49.0,45.9,29.72,NE,45,2.0,5.0,89,0.00,,---,0.00,VWS V14.00,2013-09-27 13:59:00,
2013-09-27 08:05:00,48.9,45.8,29.73,NNE,33,1.0,5.0,89,0.00,,---,0.00,VWS V14.00,2013-09-27 14:05:00,
2013-09-27 08:10:00,48.8,45.7,29.73,East,82,0.0,3.0,89,0.00,,---,0.00,VWS V14.00,2013-09-27 14:10:00,
2013-09-27 08:15:00,48.8,45.7,29.74,NE,42,0.0,0.0,89,0.00,,---,0.00,VWS V14.00,2013-09-27 14:15:00,
2013-09-27 08:20:00,48.8,45.7,29.73,NE,41,0.0,1.0,89,0.00,,---,0.00,VWS V14.00,2013-09-27 14:20:00,
2013-09-27 08:25:00,48.9,45.8,29.73,NE,40,0.0,2.0,89,0.00,,---,0.00,VWS V14.00,2013-09-27 14:25:00,
2013-09-27 08:30:00,48.9,45.8,29.74,NE,42,0.0,1.0,89,0.00,,---,0.00,VWS V14.00,2013-09-27 14:30:00,
2013-09-27 08:35:00,48.8,45.7,29.74,NE,55,0.0,1.0,89,0.00,,---,0.00,VWS V14.00,2013-09-27 14:35:00,
2013-09-27 08:40:00,48.7,45.6,29.74,ENE,64,0.0,1.0,89,0.00,,---,0.00,VWS V14.00,2013-09-27 14:40:00,
2013-09-27 08:45:00,48.6,45.5,29.74,NE,42,0.0,3.0,89,0.00,,---,0.00,VWS V14.00,2013-09-27 14:45:00,
2013-09-27 08:50:00,48.6,45.5,29.75,NE,38,0.0,2.0,89,0.00,,---,0.00,VWS V14.00,2013-09-27 14:50:00,
2013-09-27 08:55:00,48.5,45.4,29.75,NE,47,0.0,3.0,89,0.00,,---,0.00,VWS V14.00,2013-09-27 14:55:00,
2013-09-27 09:00:00,48.3,45.2,29.76,NW,306,3.0,4.0,89,0.00,,---,0.00,VWS V14.00,2013-09-27 15:00:00,
2013-09-27 09:06:00,48.3,45.2,29.77,NNE,29,0.0,0.0,89,0.00,,---,0.00,VWS V14.00,2013-09-27 15:06:00,
2013-09-27 09:11:00,48.3,45.5,29.77,NNE,28,0.0,1.0,90,0.00,,---,0.00,VWS V14.00,2013-09-27 15:11:00,
2013-09-27 09:16:00,48.4,45.6,29.77,NNE,28,0.0,1.0,90,0.00,,---,0.00,VWS V14.00,2013-09-27 15:16:00,
2013-09-27 09:22:00,48.6,45.8,29.77,ENE,62,0.0,0.0,90,0.00,,---,0.00,VWS V14.00,2013-09-27 15:22:00,
2013-09-27 09:27:00,48.6,45.8,29.77,NNW,338,0.0,0.0,90,0.00,,---,0.00,VWS V14.00,2013-09-27 15:27:00,
2013-09-27 09:33:00,48.6,45.8,29.77,NW,319,0.0,4.0,90,0.00,,---,0.00,VWS V14.00,2013-09-27 15:33:00,
2013-09-27 09:38:00,48.5,45.7,29.77,NE,40,0.0,1.0,90,0.00,,---,0.00,VWS V14.00,2013-09-27 15:38:00,
2013-09-27 09:43:00,48.4,45.6,29.77,NE,38,0.0,0.0,90,0.00,,---,0.00,VWS V14.00,2013-09-27 15:43:00,
2013-09-27 09:48:00,48.4,45.6,29.77,NNE,28,0.0,1.0,90,0.00,,---,0.00,VWS V14.00,2013-09-27 15:48:00,
2013-09-27 09:53:00,48.3,45.5,29.76,North,360,0.0,2.0,90,0.00,,---,0.00,VWS V14.00,2013-09-27 15:53:00,
2013-09-27 09:58:00,48.4,45.6,29.76,East,94,0.0,3.0,90,0.00,,---,0.00,VWS V14.00,2013-09-27 15:58:00,
2013-09-27 10:03:00,48.5,45.7,29.76,NNW,327,0.0,1.0,90,0.00,,---,0.00,VWS V14.00,2013-09-27 16:03:00,
2013-09-27 10:08:00,48.6,45.8,29.76,SE,125,0.0,2.0,90,0.00,,---,0.00,VWS V14.00,2013-09-27 16:08:00,
2013-09-27 10:13:00,48.6,45.8,29.75,East,88,0.0,4.0,90,0.00,,---,0.00,VWS V14.00,2013-09-27 16:13:00,
2013-09-27 10:19:00,48.5,45.7,29.75,North,355,0.0,2.0,90,0.00,,---,0.00,VWS V14.00,2013-09-27 16:19:00,
2013-09-27 10:25:00,48.4,45.6,29.77,ESE,120,0.0,0.0,90,0.00,,---,0.00,VWS V14.00,2013-09-27 16:25:00,
2013-09-27 10:30:00,48.4,45.6,29.78,NNW,335,0.0,2.0,90,0.00,,---,0.00,VWS V14.00,2013-09-27 16:30:00,
2013-09-27 10:35:00,48.3,45.5,29.77,NE,51,0.0,4.0,90,0.00,,---,0.00,VWS V14.00,2013-09-27 16:35:00,
2013-09-27 10:40:00,48.3,45.5,29.76,North,351,0.0,2.0,90,0.00,,---,0.00,VWS V14.00,2013-09-27 16:40:00,
2013-09-27 10:46:00,48.5,46.0,29.75,NNW,338,0.0,3.0,91,0.00,,---,0.00,VWS V14.00,2013-09-27 16:46:00,
2013-09-27 10:52:00,48.7,45.9,29.75,North,9,0.0,3.0,90,0.00,,---,0.00,VWS V14.00,2013-09-27 16:52:00,
2013-09-27 10:57:00,48.8,46.0,29.76,NE,46,0.0,3.0,90,0.00,,---,0.00,VWS V14.00,2013-09-27 16:57:00,
2013-09-27 11:02:00,48.7,45.9,29.77,NE,51,2.0,2.0,90,0.00,,---,0.00,VWS V14.00,2013-09-27 17:02:00,
2013-09-27 11:07:00,48.7,45.9,29.77,NE,36,0.0,3.0,90,0.00,,---,0.00,VWS V14.00,2013-09-27 17:07:00,
2013-09-27 11:12:00,48.7,45.9,29.77,NE,51,0.0,2.0,90,0.00,,---,0.00,VWS V14.00,2013-09-27 17:12:00,
2013-09-27 11:17:00,48.7,45.9,29.77,NNW,336,1.0,3.0,90,0.00,,---,0.00,VWS V14.00,2013-09-27 17:17:00,
2013-09-27 11:22:00,48.7,45.9,29.76,NW,323,3.0,4.0,90,0.00,,---,0.00,VWS V14.00,2013-09-27 17:22:00,
2013-09-27 11:27:00,48.6,45.8,29.76,NE,51,0.0,1.0,90,0.00,,---,0.00,VWS V14.00,2013-09-27 17:27:00,
2013-09-27 11:32:00,48.5,45.7,29.77,WNW,303,0.0,5.0,90,0.00,,---,0.00,VWS V14.00,2013-09-27 17:32:00,
2013-09-27 11:33:00,48.5,45.7,29.77,North,351,0.0,5.0,90,0.00,,---,0.00,VWS V14.00,2013-09-27 17:33:00,
2013-09-27 11:38:00,48.4,45.6,29.77,WNW,300,0.0,2.0,90,0.00,,---,0.00,VWS V14.00,2013-09-27 17:38:00,
2013-09-27 11:43:00,48.4,45.9,29.77,WNW,295,1.0,1.0,91,0.00,,---,0.00,VWS V14.00,2013-09-27 17:43:00,
2013-09-27 11:48:00,48.4,45.6,29.77,NNE,28,1.0,2.0,90,0.00,,---,0.00,VWS V14.00,2013-09-27 17:48:00,
2013-09-27 11:53:00,48.3,45.5,29.77,North,355,4.0,5.0,90,0.00,,---,0.01,VWS V14.00,2013-09-27 17:53:00,
2013-09-27 11:58:00,48.2,45.4,29.77,NNW,337,0.0,1.0,90,0.00,,---,0.01,VWS V14.00,2013-09-27 17:58:00,
2013-09-27 12:03:00,48.2,45.4,29.77,NNW,338,0.0,1.0,90,0.00,,---,0.01,VWS V14.00,2013-09-27 18:03:00,
2013-09-27 12:08:00,48.2,45.4,29.78,NNW,337,0.0,3.0,90,0.00,,---,0.01,VWS V14.00,2013-09-27 18:08:00,
2013-09-27 12:13:00,48.2,45.4,29.78,ENE,74,0.0,0.0,90,0.00,,---,0.01,VWS V14.00,2013-09-27 18:13:00,
2013-09-27 12:18:00,48.2,45.4,29.78,ENE,71,0.0,1.0,90,0.00,,---,0.01,VWS V14.00,2013-09-27 18:18:00,
2013-09-27 12:23:00,48.2,45.7,29.78,North,11,1.0,3.0,91,0.00,,---,0.01,VWS V14.00,2013-09-27 18:23:00,
2013-09-27 12:28:00,48.3,45.8,29.78,North,11,0.0,0.0,91,0.00,,---,0.01,VWS V14.00,2013-09-27 18:28:00,
2013-09-27 12:33:00,48.4,45.9,29.78,North,11,0.0,0.0,91,0.00,,---,0.01,VWS V14.00,2013-09-27 18:33:00,
2013-09-27 12:38:00,48.5,46.0,29.78,North,11,0.0,0.0,91,0.00,,---,0.01,VWS V14.00,2013-09-27 18:38:00,
2013-09-27 12:43:00,48.5,46.0,29.78,North,11,0.0,0.0,91,0.00,,---,0.01,VWS V14.00,2013-09-27 18:43:00,
2013-09-27 12:48:00,48.3,45.8,29.78,North,11,0.0,1.0,91,0.00,,---,0.01,VWS V14.00,2013-09-27 18:48:00,
2013-09-27 12:53:00,48.2,45.7,29.78,NNE,33,0.0,0.0,91,0.00,,---,0.01,VWS V14.00,2013-09-27 18:53:00,
2013-09-27 12:58:00,48.2,45.7,29.78,NE,34,0.0,1.0,91,0.00,,---,0.01,VWS V14.00,2013-09-27 18:58:00,
2013-09-27 13:03:00,48.1,45.3,29.78,NNE,13,4.0,5.0,90,0.00,,---,0.02,VWS V14.00,2013-09-27 19:03:00,
2013-09-27 13:08:00,47.8,45.3,29.77,North,360,0.0,5.0,91,0.00,,---,0.02,VWS V14.00,2013-09-27 19:08:00,
2013-09-27 13:13:00,47.9,45.4,29.78,NE,41,0.0,5.0,91,0.00,,---,0.02,VWS V14.00,2013-09-27 19:13:00,
2013-09-27 13:18:00,47.9,45.4,29.78,NE,55,0.0,3.0,91,0.00,,---,0.02,VWS V14.00,2013-09-27 19:18:00,
2013-09-27 13:23:00,47.9,45.4,29.78,NNE,29,0.0,3.0,91,0.00,,---,0.02,VWS V14.00,2013-09-27 19:23:00,
2013-09-27 13:28:00,47.8,45.3,29.78,ESE,103,0.0,2.0,91,0.00,,---,0.02,VWS V14.00,2013-09-27 19:28:00,
2013-09-27 13:33:00,47.6,45.1,29.77,NNE,25,1.0,3.0,91,0.00,,---,0.02,VWS V14.00,2013-09-27 19:33:00,
2013-09-27 13:38:00,47.5,45.0,29.77,North,351,0.0,4.0,91,0.00,,---,0.02,VWS V14.00,2013-09-27 19:38:00,
2013-09-27 13:43:00,47.3,44.8,29.77,NNW,332,1.0,6.0,91,0.00,,---,0.02,VWS V14.00,2013-09-27 19:43:00,
2013-09-27 13:48:00,47.3,44.8,29.77,NW,323,0.0,3.0,91,0.00,,---,0.02,VWS V14.00,2013-09-27 19:48:00,
2013-09-27 13:54:00,47.2,44.7,29.77,ENE,65,0.0,3.0,91,0.00,,---,0.02,VWS V14.00,2013-09-27 19:54:00,
2013-09-27 13:59:00,47.2,44.7,29.77,NNE,19,0.0,2.0,91,0.00,,---,0.02,VWS V14.00,2013-09-27 19:59:00,
2013-09-27 14:04:00,47.1,44.6,29.78,ENE,67,0.0,1.0,91,0.00,,---,0.02,VWS V14.00,2013-09-27 20:04:00,
2013-09-27 14:09:00,47.1,44.6,29.78,NW,321,0.0,2.0,91,0.00,,---,0.02,VWS V14.00,2013-09-27 20:09:00,
2013-09-27 14:14:00,47.0,44.5,29.78,NNE,30,0.0,2.0,91,0.00,,---,0.03,VWS V14.00,2013-09-27 20:14:00,
2013-09-27 14:19:00,47.0,44.5,29.78,NW,310,0.0,3.0,91,0.12,,---,0.04,VWS V14.00,2013-09-27 20:19:00,
2013-09-27 14:24:00,47.2,44.7,29.79,NNW,346,0.0,0.0,91,0.11,,---,0.04,VWS V14.00,2013-09-27 20:24:00,
2013-09-27 14:29:00,47.1,44.6,29.79,NNW,336,0.0,4.0,91,0.09,,---,0.05,VWS V14.00,2013-09-27 20:29:00,
2013-09-27 14:34:00,47.2,44.7,29.79,NNE,30,0.0,0.0,91,0.07,,---,0.05,VWS V14.00,2013-09-27 20:34:00,
2013-09-27 14:39:00,47.2,44.7,29.79,NE,44,1.0,4.0,91,0.04,,---,0.05,VWS V14.00,2013-09-27 20:39:00,
2013-09-27 14:44:00,47.2,44.7,29.80,NNE,15,1.0,1.0,91,0.00,,---,0.05,VWS V14.00,2013-09-27 20:44:00,
2013-09-27 14:49:00,47.1,44.6,29.80,NE,40,0.0,0.0,91,0.00,,---,0.05,VWS V14.00,2013-09-27 20:49:00,
2013-09-27 14:54:00,47.3,44.8,29.80,NE,41,0.0,0.0,91,0.00,,---,0.05,VWS V14.00,2013-09-27 20:54:00,
2013-09-27 14:59:00,47.3,44.8,29.80,NNE,22,0.0,0.0,91,0.00,,---,0.05,VWS V14.00,2013-09-27 20:59:00,
2013-09-27 15:04:00,47.2,44.7,29.81,NE,43,0.0,0.0,91,0.00,,---,0.05,VWS V14.00,2013-09-27 21:04:00,
2013-09-27 15:09:00,47.1,44.6,29.80,NNE,33,0.0,0.0,91,0.00,,---,0.05,VWS V14.00,2013-09-27 21:09:00,
2013-09-27 15:14:00,47.2,44.7,29.83,NE,34,0.0,0.0,91,0.00,,---,0.05,VWS V14.00,2013-09-27 21:14:00,
2013-09-27 15:19:00,47.2,44.7,29.83,NE,45,0.0,0.0,91,0.00,,---,0.05,VWS V14.00,2013-09-27 21:19:00,
2013-09-27 15:25:00,47.2,44.7,29.83,NE,42,0.0,0.0,91,0.00,,---,0.05,VWS V14.00,2013-09-27 21:25:00,
2013-09-27 15:30:00,47.0,44.5,29.83,NE,42,0.0,0.0,91,0.00,,---,0.05,VWS V14.00,2013-09-27 21:30:00,
2013-09-27 15:35:00,47.0,44.5,29.83,NE,36,0.0,1.0,91,0.00,,---,0.06,VWS V14.00,2013-09-27 21:35:00,
2013-09-27 15:40:00,47.0,44.5,29.84,NNE,32,2.0,4.0,91,0.00,,---,0.06,VWS V14.00,2013-09-27 21:40:00,
2013-09-27 15:45:00,46.9,44.4,29.82,North,351,1.0,5.0,91,0.05,,---,0.07,VWS V14.00,2013-09-27 21:45:00,
2013-09-27 15:50:00,46.9,44.4,29.82,ENE,60,0.0,1.0,91,0.05,,---,0.07,VWS V14.00,2013-09-27 21:50:00,
2013-09-27 15:55:00,46.9,44.4,29.82,NNE,26,0.0,3.0,91,0.05,,---,0.07,VWS V14.00,2013-09-27 21:55:00,
2013-09-27 16:00:00,46.9,44.4,29.83,NNE,24,1.0,3.0,91,0.04,,---,0.07,VWS V14.00,2013-09-27 22:00:00,
2013-09-27 16:05:00,47.0,44.5,29.80,North,360,1.0,3.0,91,0.00,,---,0.08,VWS V14.00,2013-09-27 22:05:00,
2013-09-27 16:10:00,47.0,44.5,29.81,East,92,0.0,0.0,91,0.00,,---,0.08,VWS V14.00,2013-09-27 22:10:00,
2013-09-27 16:15:00,47.0,44.5,29.81,NNW,331,0.0,0.0,91,0.00,,---,0.08,VWS V14.00,2013-09-27 22:15:00,
2013-09-27 16:20:00,46.9,44.4,29.81,North,5,3.0,4.0,91,0.00,,---,0.08,VWS V14.00,2013-09-27 22:20:00,
2013-09-27 16:25:00,46.8,44.3,29.81,North,360,0.0,1.0,91,0.00,,---,0.08,VWS V14.00,2013-09-27 22:25:00,
2013-09-27 16:30:00,46.9,44.7,29.81,North,5,0.0,0.0,92,0.00,,---,0.08,VWS V14.00,2013-09-27 22:30:00,
2013-09-27 16:35:00,47.0,44.5,29.80,North,5,0.0,0.0,91,0.00,,---,0.08,VWS V14.00,2013-09-27 22:35:00,
2013-09-27 16:40:00,47.0,44.5,29.80,NNW,344,0.0,3.0,91,0.00,,---,0.08,VWS V14.00,2013-09-27 22:40:00,
2013-09-27 16:45:00,47.0,44.5,29.81,NNW,344,0.0,1.0,91,0.00,,---,0.08,VWS V14.00,2013-09-27 22:45:00,
2013-09-27 16:50:00,46.9,44.4,29.82,NNW,344,0.0,1.0,91,0.00,,---,0.08,VWS V14.00,2013-09-27 22:50:00,
2013-09-27 16:55:00,47.0,44.8,29.81,NNW,344,0.0,1.0,92,0.00,,---,0.08,VWS V14.00,2013-09-27 22:55:00,
2013-09-27 17:01:00,47.1,44.9,29.82,NNW,344,0.0,0.0,92,0.00,,---,0.08,VWS V14.00,2013-09-27 23:01:00,
2013-09-27 17:06:00,47.2,44.7,29.82,NNW,344,0.0,2.0,91,0.00,,---,0.08,VWS V14.00,2013-09-27 23:06:00,
2013-09-27 17:11:00,47.2,44.7,29.83,NNW,344,0.0,2.0,91,0.00,,---,0.08,VWS V14.00,2013-09-27 23:11:00,
2013-09-27 17:16:00,47.0,44.5,29.83,NNW,334,3.0,6.0,91,0.00,,---,0.08,VWS V14.00,2013-09-27 23:16:00,
2013-09-27 17:21:00,46.8,44.3,29.83,NNW,342,0.0,3.0,91,0.00,,---,0.08,VWS V14.00,2013-09-27 23:21:00,
2013-09-27 17:26:00,46.7,44.2,29.84,NNW,342,0.0,3.0,91,0.00,,---,0.08,VWS V14.00,2013-09-27 23:26:00,
2013-09-27 17:32:00,46.6,44.1,29.84,NNE,26,0.0,3.0,91,0.00,,---,0.08,VWS V14.00,2013-09-27 23:32:00,
2013-09-27 17:37:00,46.6,44.1,29.84,NNE,26,0.0,1.0,91,0.00,,---,0.08,VWS V14.00,2013-09-27 23:37:00,
2013-09-27 17:42:00,46.7,44.2,29.85,NNE,26,0.0,0.0,91,0.00,,---,0.08,VWS V14.00,2013-09-27 23:42:00,
2013-09-27 17:47:00,46.7,44.2,29.85,NNE,26,0.0,0.0,91,0.00,,---,0.08,VWS V14.00,2013-09-27 23:47:00,
2013-09-27 17:52:00,46.6,44.1,29.85,NNE,26,2.0,2.0,91,0.00,,---,0.08,VWS V14.00,2013-09-27 23:52:00,
2013-09-27 17:57:00,46.5,44.0,29.86,NE,43,0.0,4.0,91,0.00,,---,0.08,VWS V14.00,2013-09-27 23:57:00,
2013-09-27 18:02:00,46.5,44.0,29.86,NNE,20,0.0,4.0,91,0.00,,---,0.08,VWS V14.00,2013-09-28 00:02:00,
2013-09-27 18:07:00,46.5,44.0,29.88,NNE,19,0.0,3.0,91,0.00,,---,0.08,VWS V14.00,2013-09-28 00:07:00,
2013-09-27 18:12:00,46.5,44.0,29.87,NNE,22,0.0,0.0,91,0.00,,---,0.08,VWS V14.00,2013-09-28 00:12:00,
2013-09-27 18:17:00,46.5,44.0,29.87,NE,38,0.0,3.0,91,0.00,,---,0.08,VWS V14.00,2013-09-28 00:17:00,
2013-09-27 18:22:00,46.5,44.0,29.89,NE,38,0.0,0.0,91,0.00,,---,0.08,VWS V14.00,2013-09-28 00:22:00,
2013-09-27 18:27:00,46.5,44.0,29.87,NE,51,1.0,3.0,91,0.00,,---,0.08,VWS V14.00,2013-09-28 00:27:00,
2013-09-27 18:32:00,46.3,43.8,29.89,NW,324,4.0,4.0,91,0.00,,---,0.08,VWS V14.00,2013-09-28 00:32:00,
2013-09-27 18:37:00,46.2,43.7,29.90,NNE,19,1.0,2.0,91,0.00,,---,0.08,VWS V14.00,2013-09-28 00:37:00,
2013-09-27 18:42:00,46.1,43.6,29.89,NNW,338,6.0,6.0,91,0.00,,---,0.08,VWS V14.00,2013-09-28 00:42:00,
2013-09-27 18:47:00,46.0,43.5,29.90,NNE,20,0.0,0.0,91,0.00,,---,0.09,VWS V14.00,2013-09-28 00:47:00,
2013-09-27 18:52:00,46.1,43.6,29.90,North,355,0.0,3.0,91,0.11,,---,0.09,VWS V14.00,2013-09-28 00:52:00,
2013-09-27 18:57:00,46.1,43.6,29.90,NNE,18,1.0,11.0,91,0.19,,---,0.11,VWS V14.00,2013-09-28 00:57:00,
2013-09-27 19:02:00,45.9,43.4,29.91,NNE,26,1.0,4.0,91,0.32,,---,0.13,VWS V14.00,2013-09-28 01:02:00,
2013-09-27 19:07:00,45.7,43.2,29.92,NE,54,0.0,4.0,91,0.16,,---,0.14,VWS V14.00,2013-09-28 01:07:00,
2013-09-27 19:12:00,45.6,43.1,29.91,NE,49,4.0,5.0,91,0.12,,---,0.15,VWS V14.00,2013-09-28 01:12:00,
2013-09-27 19:17:00,45.6,43.1,29.92,NE,49,0.0,2.0,91,0.07,,---,0.15,VWS V14.00,2013-09-28 01:17:00,
2013-09-27 19:22:00,45.4,42.9,29.92,NNW,343,0.0,2.0,91,0.06,,---,0.16,VWS V14.00,2013-09-28 01:22:00,
2013-09-27 19:27:00,45.4,42.9,29.92,NE,49,0.0,0.0,91,0.06,,---,0.16,VWS V14.00,2013-09-28 01:27:00,
2013-09-27 19:32:00,45.3,42.8,29.92,NW,326,0.0,0.0,91,0.04,,---,0.16,VWS V14.00,2013-09-28 01:32:00,
2013-09-27 19:37:00,45.3,42.8,29.92,NW,326,0.0,0.0,91,0.00,,---,0.16,VWS V14.00,2013-09-28 01:37:00,
2013-09-27 19:42:00,45.3,42.8,29.93,SE,126,0.0,1.0,91,0.00,,---,0.16,VWS V14.00,2013-09-28 01:42:00,
2013-09-27 19:47:00,45.2,42.7,29.93,NNE,26,0.0,4.0,91,0.00,,---,0.16,VWS V14.00,2013-09-28 01:47:00,
2013-09-27 19:52:00,45.2,42.7,29.94,North,355,0.0,4.0,91,0.00,,---,0.17,VWS V14.00,2013-09-28 01:52:00,
2013-09-27 19:57:00,45.2,42.7,29.94,NNW,344,0.0,1.0,91,0.00,,---,0.17,VWS V14.00,2013-09-28 01:57:00,
2013-09-27 20:02:00,45.1,42.6,29.96,NNE,25,0.0,0.0,91,0.07,,---,0.18,VWS V14.00,2013-09-28 02:02:00,
2013-09-27 20:07:00,45.1,42.9,29.97,NW,309,3.0,7.0,92,0.20,,---,0.20,VWS V14.00,2013-09-28 02:07:00,
2013-09-27 20:12:00,45.0,42.5,29.97,ENE,57,0.0,5.0,91,0.21,,---,0.22,VWS V14.00,2013-09-28 02:12:00,
2013-09-27 20:17:00,44.7,42.2,29.96,NW,324,3.0,3.0,91,0.13,,---,0.23,VWS V14.00,2013-09-28 02:17:00,
2013-09-27 20:22:00,44.6,42.1,29.96,NNE,32,0.0,0.0,91,0.08,,---,0.23,VWS V14.00,2013-09-28 02:22:00,
2013-09-27 20:27:00,44.5,42.3,29.96,NNE,31,0.0,0.0,92,0.05,,---,0.23,VWS V14.00,2013-09-28 02:27:00,
2013-09-27 20:32:00,44.3,41.8,29.96,ESE,103,0.0,0.0,91,0.00,,---,0.23,VWS V14.00,2013-09-28 02:32:00,
2013-09-27 20:37:00,44.2,41.7,29.96,ESE,104,0.0,0.0,91,0.00,,---,0.23,VWS V14.00,2013-09-28 02:37:00,
2013-09-27 20:42:00,44.1,41.7,29.96,ESE,104,0.0,1.0,91,0.00,,---,0.23,VWS V14.00,2013-09-28 02:42:00,
2013-09-27 20:47:00,44.0,41.5,29.97,ESE,103,0.0,0.0,91,0.00,,---,0.23,VWS V14.00,2013-09-28 02:47:00,
2013-09-27 20:52:00,44.0,41.5,29.97,ESE,103,0.0,0.0,91,0.00,,---,0.23,VWS V14.00,2013-09-28 02:52:00,
2013-09-27 20:57:00,44.0,41.5,29.98,ESE,104,0.0,1.0,91,0.00,,---,0.23,VWS V14.00,2013-09-28 02:57:00,
2013-09-27 21:02:00,43.9,41.7,29.98,ESE,104,0.0,0.0,92,0.00,,---,0.23,VWS V14.00,2013-09-28 03:02:00,
2013-09-27 21:07:00,43.8,41.6,29.98,ESE,104,0.0,0.0,92,0.00,,---,0.23,VWS V14.00,2013-09-28 03:07:00,
2013-09-27 21:12:00,43.7,41.5,29.98,ESE,104,0.0,0.0,92,0.00,,---,0.23,VWS V14.00,2013-09-28 03:12:00,
2013-09-27 21:17:00,43.6,41.4,29.99,ESE,104,0.0,0.0,92,0.00,,---,0.23,VWS V14.00,2013-09-28 03:17:00,
2013-09-27 21:22:00,43.6,41.4,29.99,ESE,103,0.0,0.0,92,0.00,,---,0.23,VWS V14.00,2013-09-28 03:22:00,
2013-09-27 21:27:00,43.5,41.0,29.99,ESE,103,0.0,0.0,91,0.00,,---,0.23,VWS V14.00,2013-09-28 03:27:00,
2013-09-27 21:32:00,43.4,41.0,30.00,ESE,104,0.0,0.0,91,0.00,,---,0.23,VWS V14.00,2013-09-28 03:32:00,
2013-09-27 21:37:00,43.3,40.8,30.00,ESE,104,0.0,0.0,91,0.00,,---,0.23,VWS V14.00,2013-09-28 03:37:00,
2013-09-27 21:42:00,43.1,40.9,30.01,ESE,104,0.0,0.0,92,0.00,,---,0.23,VWS V14.00,2013-09-28 03:42:00,
2013-09-27 21:47:00,43.0,40.8,30.01,ESE,103,0.0,0.0,92,0.00,,---,0.23,VWS V14.00,2013-09-28 03:47:00,
2013-09-27 21:52:00,42.8,40.4,30.01,ESE,104,0.0,0.0,91,0.00,,---,0.23,VWS V14.00,2013-09-28 03:52:00,
2013-09-27 21:57:00,42.7,40.3,30.01,ESE,104,0.0,0.0,91,0.00,,---,0.23,VWS V14.00,2013-09-28 03:57:00,
2013-09-27 22:01:00,42.5,40.1,30.00,ESE,104,0.0,0.0,91,0.00,,---,0.23,VWS V14.00,2013-09-28 04:01:00,
2013-09-27 22:02:00,42.5,40.1,30.00,ESE,104,0.0,0.0,91,0.00,,---,0.23,VWS V14.00,2013-09-28 04:02:00,
2013-09-27 22:03:00,42.5,40.1,30.00,ESE,104,0.0,0.0,91,0.00,,---,0.23,VWS V14.00,2013-09-28 04:03:00,
2013-09-27 22:06:00,42.4,40.0,30.01,ESE,104,0.0,0.0,91,0.00,,---,0.23,VWS V14.00,2013-09-28 04:06:00,
2013-09-27 22:11:00,42.2,39.8,30.02,ESE,104,0.0,0.0,91,0.00,,---,0.23,VWS V14.00,2013-09-28 04:11:00,
2013-09-27 22:14:00,42.1,39.7,30.02,ESE,103,0.0,0.0,91,0.00,,---,0.23,VWS V14.00,2013-09-28 04:14:00,
2013-09-27 22:20:00,41.9,39.5,30.03,ESE,103,0.0,0.0,91,0.00,,---,0.23,VWS V14.00,2013-09-28 04:20:00,
2013-09-27 22:25:00,41.7,39.3,30.03,ESE,104,0.0,0.0,91,0.00,,---,0.23,VWS V14.00,2013-09-28 04:25:00,
2013-09-27 22:30:00,41.6,39.2,30.04,ESE,104,0.0,0.0,91,0.00,,---,0.23,VWS V14.00,2013-09-28 04:30:00,
2013-09-27 22:35:00,41.6,39.2,30.03,ESE,103,0.0,0.0,91,0.00,,---,0.23,VWS V14.00,2013-09-28 04:35:00,
2013-09-27 22:41:00,41.4,39.0,30.04,ESE,103,0.0,0.0,91,0.00,,---,0.23,VWS V14.00,2013-09-28 04:41:00,
2013-09-27 22:46:00,41.3,38.9,30.04,ESE,104,0.0,0.0,91,0.00,,---,0.23,VWS V14.00,2013-09-28 04:46:00,
2013-09-27 22:51:00,41.2,39.1,30.05,ESE,104,0.0,0.0,92,0.00,,---,0.23,VWS V14.00,2013-09-28 04:51:00,
2013-09-27 22:56:00,41.1,39.0,30.05,ESE,103,0.0,0.0,92,0.00,,---,0.23,VWS V14.00,2013-09-28 04:56:00,
2013-09-27 23:01:00,41.1,38.7,30.05,ESE,103,0.0,0.0,91,0.00,,---,0.24,VWS V14.00,2013-09-28 05:01:00,
2013-09-27 23:06:00,41.0,38.6,30.05,ESE,104,0.0,0.0,91,0.00,,---,0.24,VWS V14.00,2013-09-28 05:06:00,
2013-09-27 23:12:00,40.9,38.5,30.06,ESE,104,0.0,0.0,91,0.00,,---,0.24,VWS V14.00,2013-09-28 05:12:00,
2013-09-27 23:17:00,40.7,38.6,30.05,ESE,104,0.0,0.0,92,0.00,,---,0.24,VWS V14.00,2013-09-28 05:17:00,
2013-09-27 23:22:00,40.8,38.7,30.05,ESE,103,0.0,1.0,92,0.00,,---,0.24,VWS V14.00,2013-09-28 05:22:00,
2013-09-27 23:27:00,40.9,38.8,30.05,SSW,194,0.0,2.0,92,0.00,,---,0.24,VWS V14.00,2013-09-28 05:27:00,
2013-09-27 23:32:00,41.1,39.0,30.05,SSW,196,0.0,0.0,92,0.00,,---,0.24,VWS V14.00,2013-09-28 05:32:00,
2013-09-27 23:37:00,41.4,39.2,30.05,SSW,195,0.0,0.0,92,0.00,,---,0.24,VWS V14.00,2013-09-28 05:37:00,
2013-09-27 23:42:00,41.5,39.3,30.04,SSW,195,0.0,0.0,92,0.00,,---,0.24,VWS V14.00,2013-09-28 05:42:00,
2013-09-27 23:47:00,41.6,39.5,30.04,SSW,196,0.0,0.0,92,0.00,,---,0.24,VWS V14.00,2013-09-28 05:47:00,
2013-09-27 23:52:00,41.6,39.5,30.04,SSW,196,0.0,0.0,92,0.00,,---,0.24,VWS V14.00,2013-09-28 05:52:00,
2013-09-27 23:57:00,41.5,39.3,30.05,SSW,196,0.0,0.0,92,0.00,,---,0.24,VWS V14.00,2013-09-28 05:57:00,